This demonstration page uses our WeatherBlox Daily Observations layout. Learn more.

Left ArrowRight Arrow

39.51506, -84.39828

Hourly Observations for February 8, 2017

Temp ( °F °C ) Dew Point ( °F °C ) Humidity (%) Winds ( mph kmh ) Pressure ( in mb ) Visibility ( mi km ) Precip ( " mm )
12:53 am 00:53 Mostly Cloudy 49 9.4 42 5.6 77 77 WSW 9 15 29.63 1003 10 16 0.00 0.00
1:53 am 01:53 Cloudy 49 9.4 42 5.6 77 77 WSW 12 19 29.63 1003 10 16 0.00 0.00
2:53 am 02:53 Cloudy 48 8.9 42 5.6 80 80 W 10 17 29.66 1004 10 16 0.00 0.00
3:53 am 03:53 Cloudy 46 7.8 40 4.4 79 79 WNW 9 15 29.67 1005 10 16 0.00 0.00
4:53 am 04:53 Cloudy 44 6.7 38 3.3 79 79 NW 6 9 29.70 1006 10 16 0.00 0.00
5:08 am 05:08 Cloudy 43 6.1 38 3.3 82 82 NW 10 17 29.74 1007 9 14 0.00 0.00
5:38 am 05:38 Cloudy 40 4.4 36 2.2 86 86 NNW 13 20 29.77 1008 7 11 0.00 0.00
5:53 am 05:53 Cloudy with Mist and Fog 39 3.9 36 2.2 89 89 NNW 16 26 29.76 1008 6 10 0.00 0.00
6:29 am 06:29 Cloudy 37 2.8 33 0.6 86 86 NNW 12 19 29.80 1009 9 14 0.00 0.00
6:53 am 06:53 Cloudy 37 2.8 33 0.6 86 86 NNW 12 19 29.79 1009 9 14 0.00 0.00
7:07 am 07:07 Cloudy 37 2.8 33 0.6 86 86 NW 14 22 29.83 1010 8 13 0.00 0.00
7:53 am 07:53 Cloudy with Mist and Fog 36 2.2 33 0.6 89 89 N 7 11 29.79 1009 6 10 0.00 0.00
8:30 am 08:30 Cloudy with Mist and Fog 36 2.2 33 0.6 89 89 N 7 11 29.83 1010 5 8 0.00 0.00
8:53 am 08:53 Cloudy with Mist and Fog 36 2.2 34 1.1 93 93 NNE 8 13 29.79 1009 4 6 0.00 0.00
9:53 am 09:53 Cloudy with Mist and Fog 37 2.8 34 1.1 89 89 NNW 8 13 29.83 1010 4 6 0.00 0.00
10:53 am 10:53 Cloudy with Haze 38 3.3 33 0.6 83 83 NNW 9 15 29.85 1011 6 10 0.00 0.00
11:09 am 11:09 Cloudy with Haze 38 3.3 33 0.6 83 83 N 10 17 29.85 1011 6 10 0.00 0.00
11:53 am 11:53 Cloudy 39 3.9 33 0.6 79 79 N 8 13 29.85 1011 7 11 0.00 0.00
12:53 pm 12:53 Cloudy 40 4.4 34 1.1 79 79 NE 10 17 29.78 1008 7 11 0.00 0.00
1:53 pm 13:53 Cloudy 40 4.4 34 1.1 79 79 ENE 8 13 29.77 1008 8 13 0.00 0.00
2:24 pm 14:24 Cloudy 40 4.4 34 1.1 79 79 NE 7 11 29.80 1009 8 13 0.00 0.00
2:53 pm 14:53 Cloudy 40 4.4 34 1.1 79 79 N 9 15 29.78 1009 8 13 0.00 0.00
3:53 pm 15:53 Cloudy 40 4.4 33 0.6 77 77 N 6 9 29.80 1009 9 14 0.00 0.00
4:53 pm 16:53 Cloudy 38 3.3 33 0.6 83 83 N 14 22 29.80 1009 10 16 0.00 0.00
5:00 pm 17:00 Cloudy 37 2.8 32 0 82 82 N 15 24 29.80 1009 10 16 0.00 0.00
5:53 pm 17:53 Cloudy 35 1.7 30 -1.1 82 82 N 13 20 29.80 1009 10 16 0.00 0.00
6:44 pm 18:44 Cloudy with Light Snow 33 0.6 30 -1.1 89 89 N 10 17 29.85 1011 2 3 0.00 0.03
6:48 pm 18:48 Cloudy with Light Snow 34 1 30 -1 87 87 N 12 19 29.85 1011 2 3 0.00 0.03
6:53 pm 18:53 Cloudy with Light Snow 33 0.6 30 -1.1 89 89 N 10 17 29.82 1010 2 2 0.00 0.03
7:48 pm 19:48 Cloudy with Light Snow 32 0 30 -1 93 93 N 13 20 29.88 1012 1 1 0.02 0.51
7:53 pm 19:53 Cloudy with Snow 32 0 30 -1.1 92 92 N 10 17 29.84 1010 1 1 0.02 0.51
8:14 pm 20:14 Cloudy with Light Snow 31 -0.6 30 -1.1 96 96 N 15 24 29.85 1011 1 2 0.02 0.51
8:23 pm 20:23 Cloudy with Light Snow 31 -0.6 29 -1.7 92 92 N 14 22 29.85 1011 1 2 0.03 0.76
8:35 pm 20:35 Cloudy with Light Snow 31 -0.6 30 -1.1 96 96 N 12 19 29.85 1011 1 2 0.03 0.76
8:53 pm 20:53 Cloudy with Light Snow 31 -0.6 29 -1.7 92 92 N 14 22 29.86 1011 3 4 0.04 1.02
9:04 pm 21:04 Cloudy with Light Snow 31 -0.6 29 -1.7 92 92 N 13 20 29.88 1012 3 5 0.00 0.03
9:31 pm 21:31 Cloudy with Light Snow 31 -0.6 29 -1.7 92 92 NNW 10 17 29.91 1013 2 3 0.00 0.03
9:38 pm 21:38 Cloudy with Light Snow 31 -0.6 29 -1.7 92 92 N 10 17 29.91 1013 2 3 0.00 0.03
9:46 pm 21:46 Cloudy with Light Snow 31 -0.6 29 -1.7 92 92 NNW 12 19 29.91 1013 2 3 0.00 0.03
9:53 pm 21:53 Cloudy with Light Snow 30 -1.1 28 -2.2 92 92 NNW 16 26 29.88 1012 3 5 0.00 0.03
10:24 pm 22:24 Cloudy 30 -1.1 27 -2.8 88 88 NNW 14 22 29.94 1014 10 16 0.00 0.03
10:53 pm 22:53 Cloudy 30 -1.1 26 -3.3 85 85 NNW 16 26 29.90 1012 10 16 0.00 0.03
11:53 pm 23:53 Cloudy 29 -1.7 25 -3.9 85 85 NNW 18 30 29.93 1014 10 16 0.00 0.00

Powered by AerisWeather